This is the latest recevied weather packets stored in our database for station/object SR3WXA. If no packets are shown the sender has not sent any weather packets the latest 10 day(s).
| Time | Temp. | Humidity | Pressure | Rain* | Wind** | Luminosity | Snow |
|---|---|---|---|---|---|---|---|
| 1778140653 | 7.78° C | 90% | 1012.4 hPa | 0 mm | - | 100 W/m² | - |
| 1778140612 | 7.78° C | 90% | 1012.4 hPa | 0 mm | - | 100 W/m² | - |
| 1778140311 | 7.78° C | 90% | 1012.3 hPa | 0 mm | - | 88 W/m² | - |
| 1778140011 | 7.78° C | 90% | 1012.4 hPa | 0 mm | - | 76 W/m² | - |
| 1778139742 | 7.78° C | 91% | 1012.4 hPa | 0 mm | - | 84 W/m² | - |
| 1778139711 | 7.78° C | 91% | 1012.4 hPa | 0 mm | - | 84 W/m² | - |
| 1778139411 | 7.78° C | 91% | 1012.3 hPa | 0 mm | - | 144 W/m² | - |
| 1778139111 | 7.78° C | 91% | 1012.2 hPa | 0 mm | - | 135 W/m² | - |
| 1778138811 | 7.78° C | 92% | 1012.2 hPa | 0 mm | - | 169 W/m² | - |
| 1778138091 | 7.78° C | 92% | 1011.9 hPa | 0 mm | - | 109 W/m² | - |
| 1778137843 | 7.78° C | 92% | 1011.9 hPa | 0 mm | - | 100 W/m² | - |
| 1778137791 | 7.78° C | 92% | 1011.9 hPa | 0 mm | - | 100 W/m² | - |
| 1778137543 | 7.78° C | 92% | 1011.9 hPa | 0 mm | - | 100 W/m² | - |
| 1778137490 | 7.78° C | 92% | 1011.9 hPa | 0 mm | - | 100 W/m² | - |
| 1778137191 | 7.78° C | 92% | 1011.9 hPa | 0 mm | - | 90 W/m² | - |
| 1778136890 | 7.78° C | 92% | 1011.8 hPa | 0 mm | - | 60 W/m² | - |
| 1778136839 | 7.78° C | 92% | 1011.9 hPa | 0 mm | - | 56 W/m² | - |
| 1778136622 | 7.78° C | 92% | 1011.9 hPa | 0 mm | - | 56 W/m² | - |
| 1778136591 | 7.78° C | 92% | 1011.9 hPa | 0 mm | - | 56 W/m² | - |
| 1778136291 | 7.78° C | 93% | 1011.8 hPa | 0 mm | - | 53 W/m² | - |
| 1778136027 | 7.78° C | 93% | 1011.9 hPa | 0 mm | - | 54 W/m² | - |
| 1778135991 | 7.78° C | 93% | 1011.9 hPa | 0 mm | - | 54 W/m² | - |
| 1778135479 | 7.22° C | 93% | 1011.5 hPa | 0 mm | - | 62 W/m² | - |
| 1778135446 | 7.22° C | 93% | 1011.5 hPa | 0 mm | - | 62 W/m² | - |
| 1778135206 | 7.22° C | 93% | 1011.5 hPa | 0 mm | - | 65 W/m² | - |
* Rain latest hour (hover to see other rain measurements)
** Current wind speed in m/s (hover to see current wind gust speed)